owner,sensor,date,latitude,longitude,vertical_datum,sea_water_practical_salinity,qcFlag 
DISL,ioos:station:DISL:KATA:1,2015-06-01T00:00:00Z,30.2583,-88.2131,3.882,18.17,1111122 
DISL,ioos:station:DISL:KATA:1,2015-06-01T00:30:00Z,30.2583,-88.2131,3.878,18.2,1111122 
DISL,ioos:station:DISL:KATA:1,2015-06-01T01:00:00Z,30.2583,-88.2131,3.875,18.23,1111122 
DISL,ioos:station:DISL:KATA:1,2015-06-01T01:30:00Z,30.2583,-88.2131,3.863,18.19,1111122 
DISL,ioos:station:DISL:KATA:1,2015-06-01T02:00:00Z,30.2583,-88.2131,3.852,18.17,1111122 
DISL,ioos:station:DISL:KATA:1,2015-06-01T02:30:00Z,30.2583,-88.2131,3.853,18.15,1111122 
DISL,ioos:station:DISL:KATA:1,2015-06-01T03:00:00Z,30.2583,-88.2131,3.868,18.21,1111122 
DISL,ioos:station:DISL:KATA:1,2015-06-01T03:30:00Z,30.2583,-88.2131,3.902,18.34,1111122 
DISL,ioos:station:DISL:KATA:1,2015-06-01T04:00:00Z,30.2583,-88.2131,3.937,18.33,1111122 
DISL,ioos:station:DISL:KATA:1,2015-06-01T04:30:00Z,30.2583,-88.2131,3.963,18.37,1111122 
DISL,ioos:station:DISL:KATA:1,2015-06-01T05:00:00Z,30.2583,-88.2131,3.985,18.02,1111122 
DISL,ioos:station:DISL:KATA:1,2015-06-01T05:30:00Z,30.2583,-88.2131,3.992,18.48,1111122 
DISL,ioos:station:DISL:KATA:1,2015-06-01T06:00:00Z,30.2583,-88.2131,3.975,18.51,1111122 
DISL,ioos:station:DISL:KATA:1,2015-06-01T06:30:00Z,30.2583,-88.2131,3.988,18.53,1111122 
DISL,ioos:station:DISL:KATA:1,2015-06-01T07:00:00Z,30.2583,-88.2131,4.012,18.55,1111122 
DISL,ioos:station:DISL:KATA:1,2015-06-01T07:30:00Z,30.2583,-88.2131,4.036,18.52,1111122 
DISL,ioos:station:DISL:KATA:1,2015-06-01T08:00:00Z,30.2583,-88.2131,4.041,18.51,1111122 
DISL,ioos:station:DISL:KATA:1,2015-06-01T08:30:00Z,30.2583,-88.2131,4.062,18.51,1111122 
DISL,ioos:station:DISL:KATA:1,2015-06-01T09:00:00Z,30.2583,-88.2131,4.081,18.43,1111122 
DISL,ioos:station:DISL:KATA:1,2015-06-01T09:30:00Z,30.2583,-88.2131,4.112,18.44,1111122 
DISL,ioos:station:DISL:KATA:1,2015-06-01T10:00:00Z,30.2583,-88.2131,4.157,18.45,1111122 
DISL,ioos:station:DISL:KATA:1,2015-06-01T10:30:00Z,30.2583,-88.2131,4.191,18.4,1111122 
DISL,ioos:station:DISL:KATA:1,2015-06-01T11:00:00Z,30.2583,-88.2131,4.236,18.31,1111122 
DISL,ioos:station:DISL:KATA:1,2015-06-01T11:30:00Z,30.2583,-88.2131,4.266,18.37,1111122 
DISL,ioos:station:DISL:KATA:1,2015-06-01T12:00:00Z,30.2583,-88.2131,4.293,18.36,1111122 
DISL,ioos:station:DISL:KATA:1,2015-06-01T12:30:00Z,30.2583,-88.2131,4.326,18.3,1111122 
DISL,ioos:station:DISL:KATA:1,2015-06-01T13:00:00Z,30.2583,-88.2131,4.338,18.34,1111122 
DISL,ioos:station:DISL:KATA:1,2015-06-01T13:30:00Z,30.2583,-88.2131,4.345,18.32,1111122 
DISL,ioos:station:DISL:KATA:1,2015-06-01T14:00:00Z,30.2583,-88.2131,4.335,18.35,1111122 
DISL,ioos:station:DISL:KATA:1,2015-06-01T14:30:00Z,30.2583,-88.2131,4.312,18.36,1111122 
DISL,ioos:station:DISL:KATA:1,2015-06-01T15:00:00Z,30.2583,-88.2131,4.293,18.31,1111122 
DISL,ioos:station:DISL:KATA:1,2015-06-01T15:30:00Z,30.2583,-88.2131,4.299,18.24,1111122 
DISL,ioos:station:DISL:KATA:1,2015-06-01T16:00:00Z,30.2583,-88.2131,4.284,18.52,1111122 
DISL,ioos:station:DISL:KATA:1,2015-06-01T16:30:00Z,30.2583,-88.2131,4.264,18.46,1111122 
DISL,ioos:station:DISL:KATA:1,2015-06-01T17:00:00Z,30.2583,-88.2131,4.255,18.36,1111122 
DISL,ioos:station:DISL:KATA:1,2015-06-01T17:30:00Z,30.2583,-88.2131,4.235,18.43,1111122 
DISL,ioos:station:DISL:KATA:1,2015-06-01T18:00:00Z,30.2583,-88.2131,4.208,18.36,1111122 
DISL,ioos:station:DISL:KATA:1,2015-06-01T18:30:00Z,30.2583,-88.2131,4.177,18.39,1111122 
DISL,ioos:station:DISL:KATA:1,2015-06-01T19:00:00Z,30.2583,-88.2131,4.127,18.3,1111122 
DISL,ioos:station:DISL:KATA:1,2015-06-01T19:30:00Z,30.2583,-88.2131,4.072,18.27,1111122 
DISL,ioos:station:DISL:KATA:1,2015-06-01T20:00:00Z,30.2583,-88.2131,4.014,18.68,1111122 
DISL,ioos:station:DISL:KATA:1,2015-06-01T20:30:00Z,30.2583,-88.2131,3.951,18.52,1111122 
DISL,ioos:station:DISL:KATA:1,2015-06-01T21:00:00Z,30.2583,-88.2131,3.907,18.91,1111122 
DISL,ioos:station:DISL:KATA:1,2015-06-01T21:30:00Z,30.2583,-88.2131,3.873,18.83,1111122 
DISL,ioos:station:DISL:KATA:1,2015-06-01T22:00:00Z,30.2583,-88.2131,3.832,18.61,1111122 
DISL,ioos:station:DISL:KATA:1,2015-06-01T22:30:00Z,30.2583,-88.2131,3.804,18.51,1111122 
DISL,ioos:station:DISL:KATA:1,2015-06-01T23:00:00Z,30.2583,-88.2131,3.769,18.49,1111122 
DISL,ioos:station:DISL:KATA:1,2015-06-01T23:30:00Z,30.2583,-88.2131,3.741,18.58,1111122 
DISL,ioos:station:DISL:KATA:1,2015-06-02T00:00:00Z,30.2583,-88.2131,3.744,18.57,1111122 
DISL,ioos:station:DISL:KATA:1,2015-06-02T00:30:00Z,30.2583,-88.2131,3.757,18.65,1111122 
DISL,ioos:station:DISL:KATA:1,2015-06-02T01:00:00Z,30.2583,-88.2131,3.764,18.7,1111122 
DISL,ioos:station:DISL:KATA:1,2015-06-02T01:30:00Z,30.2583,-88.2131,3.768,18.73,1111122 
DISL,ioos:station:DISL:KATA:1,2015-06-02T02:00:00Z,30.2583,-88.2131,3.772,18.82,1111122 
DISL,ioos:station:DISL:KATA:1,2015-06-02T02:30:00Z,30.2583,-88.2131,3.784,18.8,1111122 
DISL,ioos:station:DISL:KATA:1,2015-06-02T03:00:00Z,30.2583,-88.2131,3.81,18.81,1111122 
DISL,ioos:station:DISL:KATA:1,2015-06-02T03:30:00Z,30.2583,-88.2131,3.841,18.88,1111122 
DISL,ioos:station:DISL:KATA:1,2015-06-02T04:00:00Z,30.2583,-88.2131,3.878,18.93,1111122 
DISL,ioos:station:DISL:KATA:1,2015-06-02T04:30:00Z,30.2583,-88.2131,3.923,18.82,1111122 
DISL,ioos:station:DISL:KATA:1,2015-06-02T05:00:00Z,30.2583,-88.2131,3.959,18.78,1111122 
DISL,ioos:station:DISL:KATA:1,2015-06-02T05:30:00Z,30.2583,-88.2131,3.986,18.85,1111122 
DISL,ioos:station:DISL:KATA:1,2015-06-02T06:00:00Z,30.2583,-88.2131,4.008,18.78,1111122 
DISL,ioos:station:DISL:KATA:1,2015-06-02T06:30:00Z,30.2583,-88.2131,4.033,18.86,1111122 
DISL,ioos:station:DISL:KATA:1,2015-06-02T07:00:00Z,30.2583,-88.2131,4.044,18.89,1111122 
DISL,ioos:station:DISL:KATA:1,2015-06-02T07:30:00Z,30.2583,-88.2131,4.049,18.88,1111122 
DISL,ioos:station:DISL:KATA:1,2015-06-02T08:00:00Z,30.2583,-88.2131,4.075,18.89,1111122 
DISL,ioos:station:DISL:KATA:1,2015-06-02T08:30:00Z,30.2583,-88.2131,4.098,18.91,1111122 
DISL,ioos:station:DISL:KATA:1,2015-06-02T09:00:00Z,30.2583,-88.2131,4.135,18.85,1111122 
DISL,ioos:station:DISL:KATA:1,2015-06-02T09:30:00Z,30.2583,-88.2131,4.222,18.85,1111122 
DISL,ioos:station:DISL:KATA:1,2015-06-02T10:00:00Z,30.2583,-88.2131,4.231,18.72,1111122 
DISL,ioos:station:DISL:KATA:1,2015-06-02T10:30:00Z,30.2583,-88.2131,4.201,18.44,1111122 
DISL,ioos:station:DISL:KATA:1,2015-06-02T11:00:00Z,30.2583,-88.2131,4.201,18.59,1111122 
DISL,ioos:station:DISL:KATA:1,2015-06-02T11:30:00Z,30.2583,-88.2131,4.207,18.66,1111122 
DISL,ioos:station:DISL:KATA:1,2015-06-02T12:00:00Z,30.2583,-88.2131,4.244,18.7,1111122 
DISL,ioos:station:DISL:KATA:1,2015-06-02T12:30:00Z,30.2583,-88.2131,4.297,18.78,1111122 
DISL,ioos:station:DISL:KATA:1,2015-06-02T13:00:00Z,30.2583,-88.2131,4.331,18.62,1111122 
DISL,ioos:station:DISL:KATA:1,2015-06-02T13:30:00Z,30.2583,-88.2131,4.387,18.69,1111122 
DISL,ioos:station:DISL:KATA:1,2015-06-02T14:00:00Z,30.2583,-88.2131,4.406,18.46,1111122 
DISL,ioos:station:DISL:KATA:1,2015-06-02T14:30:00Z,30.2583,-88.2131,4.406,18.5,1111122 
DISL,ioos:station:DISL:KATA:1,2015-06-02T15:00:00Z,30.2583,-88.2131,4.396,18.43,1111122 
DISL,ioos:station:DISL:KATA:1,2015-06-02T15:30:00Z,30.2583,-88.2131,4.378,18.44,1111122 
DISL,ioos:station:DISL:KATA:1,2015-06-02T16:00:00Z,30.2583,-88.2131,4.35,18.32,1111122 
DISL,ioos:station:DISL:KATA:1,2015-06-02T16:30:00Z,30.2583,-88.2131,4.321,18.4,1111122 
DISL,ioos:station:DISL:KATA:1,2015-06-02T17:00:00Z,30.2583,-88.2131,4.285,18.42,1111122 
DISL,ioos:station:DISL:KATA:1,2015-06-02T17:30:00Z,30.2583,-88.2131,4.254,18.44,1111122 
DISL,ioos:station:DISL:KATA:1,2015-06-02T18:00:00Z,30.2583,-88.2131,4.228,18.47,1111122 
DISL,ioos:station:DISL:KATA:1,2015-06-02T18:30:00Z,30.2583,-88.2131,4.209,18.42,1111122 
DISL,ioos:station:DISL:KATA:1,2015-06-02T19:00:00Z,30.2583,-88.2131,4.176,18.42,1111122 
DISL,ioos:station:DISL:KATA:1,2015-06-02T19:30:00Z,30.2583,-88.2131,4.12,18.38,1111122 
DISL,ioos:station:DISL:KATA:1,2015-06-02T20:00:00Z,30.2583,-88.2131,4.072,18.42,1111122 
DISL,ioos:station:DISL:KATA:1,2015-06-02T20:30:00Z,30.2583,-88.2131,4.014,18.3,1111122 
DISL,ioos:station:DISL:KATA:1,2015-06-02T21:00:00Z,30.2583,-88.2131,3.966,18.27,1111122 
DISL,ioos:station:DISL:KATA:1,2015-06-02T21:30:00Z,30.2583,-88.2131,3.906,18.25,1111122 
DISL,ioos:station:DISL:KATA:1,2015-06-02T22:00:00Z,30.2583,-88.2131,3.859,18.2,1111122 
DISL,ioos:station:DISL:KATA:1,2015-06-02T22:30:00Z,30.2583,-88.2131,3.832,18.08,1111122 
DISL,ioos:station:DISL:KATA:1,2015-06-02T23:00:00Z,30.2583,-88.2131,3.803,18.1,1111122 
DISL,ioos:station:DISL:KATA:1,2015-06-02T23:30:00Z,30.2583,-88.2131,3.781,18.13,1111122 
DISL,ioos:station:DISL:KATA:1,2015-06-03T00:00:00Z,30.2583,-88.2131,3.774,18.22,1111122 
DISL,ioos:station:DISL:KATA:1,2015-06-03T00:30:00Z,30.2583,-88.2131,3.766,18.18,1111122 
DISL,ioos:station:DISL:KATA:1,2015-06-03T01:00:00Z,30.2583,-88.2131,3.757,18.23,1111122 
DISL,ioos:station:DISL:KATA:1,2015-06-03T01:30:00Z,30.2583,-88.2131,3.767,18.2,1111122 
DISL,ioos:station:DISL:KATA:1,2015-06-03T02:00:00Z,30.2583,-88.2131,3.783,18.22,1111122 
DISL,ioos:station:DISL:KATA:1,2015-06-03T02:30:00Z,30.2583,-88.2131,3.816,18.25,1111122 
DISL,ioos:station:DISL:KATA:1,2015-06-03T03:00:00Z,30.2583,-88.2131,3.838,18.24,1111122 
DISL,ioos:station:DISL:KATA:1,2015-06-03T03:30:00Z,30.2583,-88.2131,3.86,18.28,1111122 
DISL,ioos:station:DISL:KATA:1,2015-06-03T04:00:00Z,30.2583,-88.2131,3.88,18.26,1111122 
DISL,ioos:station:DISL:KATA:1,2015-06-03T04:30:00Z,30.2583,-88.2131,3.899,18.24,1111122 
DISL,ioos:station:DISL:KATA:1,2015-06-03T05:00:00Z,30.2583,-88.2131,3.923,18.19,1111122 
DISL,ioos:station:DISL:KATA:1,2015-06-03T05:30:00Z,30.2583,-88.2131,3.947,18.14,1111122 
DISL,ioos:station:DISL:KATA:1,2015-06-03T06:00:00Z,30.2583,-88.2131,3.959,18.23,1111122 
DISL,ioos:station:DISL:KATA:1,2015-06-03T06:30:00Z,30.2583,-88.2131,3.996,18.22,1111122 
DISL,ioos:station:DISL:KATA:1,2015-06-03T07:00:00Z,30.2583,-88.2131,4.013,18.17,1111122 
DISL,ioos:station:DISL:KATA:1,2015-06-03T07:30:00Z,30.2583,-88.2131,4.012,18.13,1111122 
DISL,ioos:station:DISL:KATA:1,2015-06-03T08:00:00Z,30.2583,-88.2131,4.028,18.21,1111122 
DISL,ioos:station:DISL:KATA:1,2015-06-03T08:30:00Z,30.2583,-88.2131,4.056,18.19,1111122 
DISL,ioos:station:DISL:KATA:1,2015-06-03T09:00:00Z,30.2583,-88.2131,4.09,18.01,1111122 
DISL,ioos:station:DISL:KATA:1,2015-06-03T09:30:00Z,30.2583,-88.2131,4.118,17.87,1111122 
DISL,ioos:station:DISL:KATA:1,2015-06-03T10:00:00Z,30.2583,-88.2131,4.149,17.74,1111122 
DISL,ioos:station:DISL:KATA:1,2015-06-03T10:30:00Z,30.2583,-88.2131,4.183,17.58,1111122 
DISL,ioos:station:DISL:KATA:1,2015-06-03T11:00:00Z,30.2583,-88.2131,4.205,17.48,1111122 
DISL,ioos:station:DISL:KATA:1,2015-06-03T11:30:00Z,30.2583,-88.2131,4.22,17.53,1111122 
DISL,ioos:station:DISL:KATA:1,2015-06-03T12:00:00Z,30.2583,-88.2131,4.209,17.61,1111122 
DISL,ioos:station:DISL:KATA:1,2015-06-03T12:30:00Z,30.2583,-88.2131,4.237,17.53,1111122 
DISL,ioos:station:DISL:KATA:1,2015-06-03T13:00:00Z,30.2583,-88.2131,4.271,17.62,1111122 
DISL,ioos:station:DISL:KATA:1,2015-06-03T13:30:00Z,30.2583,-88.2131,4.298,17.66,1111122 
DISL,ioos:station:DISL:KATA:1,2015-06-03T14:00:00Z,30.2583,-88.2131,4.341,17.62,1111122 
DISL,ioos:station:DISL:KATA:1,2015-06-03T14:30:00Z,30.2583,-88.2131,4.37,17.59,1111122 
DISL,ioos:station:DISL:KATA:1,2015-06-03T15:00:00Z,30.2583,-88.2131,4.383,17.46,1111122 
DISL,ioos:station:DISL:KATA:1,2015-06-03T15:30:00Z,30.2583,-88.2131,4.413,17.53,1111122 
DISL,ioos:station:DISL:KATA:1,2015-06-03T16:00:00Z,30.2583,-88.2131,4.413,17.82,1111122 
DISL,ioos:station:DISL:KATA:1,2015-06-03T16:30:00Z,30.2583,-88.2131,4.393,17.9,1111122 
DISL,ioos:station:DISL:KATA:1,2015-06-03T17:00:00Z,30.2583,-88.2131,4.373,17.94,1111122 
DISL,ioos:station:DISL:KATA:1,2015-06-03T17:30:00Z,30.2583,-88.2131,4.346,18.22,1111122 
DISL,ioos:station:DISL:KATA:1,2015-06-03T18:00:00Z,30.2583,-88.2131,4.325,18.27,1111122 
DISL,ioos:station:DISL:KATA:1,2015-06-03T18:30:00Z,30.2583,-88.2131,4.298,18.22,1111122 
DISL,ioos:station:DISL:KATA:1,2015-06-03T19:00:00Z,30.2583,-88.2131,4.262,18.45,1111122 
DISL,ioos:station:DISL:KATA:1,2015-06-03T19:30:00Z,30.2583,-88.2131,4.219,18.68,1111122 
DISL,ioos:station:DISL:KATA:1,2015-06-03T20:00:00Z,30.2583,-88.2131,4.17,18.25,1111122 
DISL,ioos:station:DISL:KATA:1,2015-06-03T20:30:00Z,30.2583,-88.2131,4.108,18.83,1111122 
DISL,ioos:station:DISL:KATA:1,2015-06-03T21:00:00Z,30.2583,-88.2131,4.062,18.12,1111122 
DISL,ioos:station:DISL:KATA:1,2015-06-03T21:30:00Z,30.2583,-88.2131,4.016,18.18,1111122 
DISL,ioos:station:DISL:KATA:1,2015-06-03T22:00:00Z,30.2583,-88.2131,3.961,17.82,1111122 
DISL,ioos:station:DISL:KATA:1,2015-06-03T22:30:00Z,30.2583,-88.2131,3.909,17.84,1111122 
DISL,ioos:station:DISL:KATA:1,2015-06-03T23:00:00Z,30.2583,-88.2131,3.866,17.69,1111122 
DISL,ioos:station:DISL:KATA:1,2015-06-03T23:30:00Z,30.2583,-88.2131,3.834,17.81,1111122 
DISL,ioos:station:DISL:KATA:1,2015-06-04T00:00:00Z,30.2583,-88.2131,3.798,18.19,1111122 
DISL,ioos:station:DISL:KATA:1,2015-06-04T00:30:00Z,30.2583,-88.2131,3.782,17.77,1111122 
DISL,ioos:station:DISL:KATA:1,2015-06-04T01:00:00Z,30.2583,-88.2131,3.767,17.64,1111122 
DISL,ioos:station:DISL:KATA:1,2015-06-04T01:30:00Z,30.2583,-88.2131,3.758,17.58,1111122 
DISL,ioos:station:DISL:KATA:1,2015-06-04T02:00:00Z,30.2583,-88.2131,3.764,17.29,1111122 
DISL,ioos:station:DISL:KATA:1,2015-06-04T02:30:00Z,30.2583,-88.2131,3.774,17.63,1111122 
DISL,ioos:station:DISL:KATA:1,2015-06-04T03:00:00Z,30.2583,-88.2131,3.785,17.55,1111122 
DISL,ioos:station:DISL:KATA:1,2015-06-04T03:30:00Z,30.2583,-88.2131,3.808,17.74,1111122 
DISL,ioos:station:DISL:KATA:1,2015-06-04T04:00:00Z,30.2583,-88.2131,3.82,17.56,1111122 
DISL,ioos:station:DISL:KATA:1,2015-06-04T04:30:00Z,30.2583,-88.2131,3.828,17.58,1111122 
DISL,ioos:station:DISL:KATA:1,2015-06-04T05:00:00Z,30.2583,-88.2131,3.844,17.46,1111122 
DISL,ioos:station:DISL:KATA:1,2015-06-04T05:30:00Z,30.2583,-88.2131,3.876,17.64,1111122 
DISL,ioos:station:DISL:KATA:1,2015-06-04T06:00:00Z,30.2583,-88.2131,3.912,17.73,1111122 
DISL,ioos:station:DISL:KATA:1,2015-06-04T06:30:00Z,30.2583,-88.2131,3.931,17.62,1111122 
DISL,ioos:station:DISL:KATA:1,2015-06-04T07:00:00Z,30.2583,-88.2131,3.955,17.61,1111122 
DISL,ioos:station:DISL:KATA:1,2015-06-04T07:30:00Z,30.2583,-88.2131,3.984,17.76,1111122 
DISL,ioos:station:DISL:KATA:1,2015-06-04T08:00:00Z,30.2583,-88.2131,4.017,17.7,1111122 
DISL,ioos:station:DISL:KATA:1,2015-06-04T08:30:00Z,30.2583,-88.2131,4.036,17.71,1111122 
DISL,ioos:station:DISL:KATA:1,2015-06-04T09:00:00Z,30.2583,-88.2131,4.052,18.06,1111122 
DISL,ioos:station:DISL:KATA:1,2015-06-04T09:30:00Z,30.2583,-88.2131,4.078,17.88,1111122 
DISL,ioos:station:DISL:KATA:1,2015-06-04T10:00:00Z,30.2583,-88.2131,4.099,18.0,1111122 
DISL,ioos:station:DISL:KATA:1,2015-06-04T10:30:00Z,30.2583,-88.2131,4.121,18.62,1111122 
DISL,ioos:station:DISL:KATA:1,2015-06-04T11:00:00Z,30.2583,-88.2131,4.144,18.15,1111122 
DISL,ioos:station:DISL:KATA:1,2015-06-04T11:30:00Z,30.2583,-88.2131,4.165,18.55,1111122 
DISL,ioos:station:DISL:KATA:1,2015-06-04T12:00:00Z,30.2583,-88.2131,4.197,18.44,1111122 
DISL,ioos:station:DISL:KATA:1,2015-06-04T12:30:00Z,30.2583,-88.2131,4.227,18.33,1111122 
DISL,ioos:station:DISL:KATA:1,2015-06-04T13:00:00Z,30.2583,-88.2131,4.263,18.46,1111122 
DISL,ioos:station:DISL:KATA:1,2015-06-04T13:30:00Z,30.2583,-88.2131,4.302,18.71,1111122 
DISL,ioos:station:DISL:KATA:1,2015-06-04T14:00:00Z,30.2583,-88.2131,4.34,18.68,1111122 
DISL,ioos:station:DISL:KATA:1,2015-06-04T14:30:00Z,30.2583,-88.2131,4.38,19.31,1111122 
DISL,ioos:station:DISL:KATA:1,2015-06-04T15:00:00Z,30.2583,-88.2131,4.414,18.99,1111122 
DISL,ioos:station:DISL:KATA:1,2015-06-04T15:30:00Z,30.2583,-88.2131,4.444,18.85,1111122 
DISL,ioos:station:DISL:KATA:1,2015-06-04T16:00:00Z,30.2583,-88.2131,4.449,18.92,1111122 
DISL,ioos:station:DISL:KATA:1,2015-06-04T16:30:00Z,30.2583,-88.2131,4.437,19.43,1111122 
DISL,ioos:station:DISL:KATA:1,2015-06-04T17:00:00Z,30.2583,-88.2131,4.404,19.19,1111122 
DISL,ioos:station:DISL:KATA:1,2015-06-04T17:30:00Z,30.2583,-88.2131,4.372,19.45,1111122 
DISL,ioos:station:DISL:KATA:1,2015-06-04T18:00:00Z,30.2583,-88.2131,4.341,19.69,1111122 
DISL,ioos:station:DISL:KATA:1,2015-06-04T18:30:00Z,30.2583,-88.2131,4.315,19.69,1111122 
DISL,ioos:station:DISL:KATA:1,2015-06-04T19:00:00Z,30.2583,-88.2131,4.296,19.7,1111122 
DISL,ioos:station:DISL:KATA:1,2015-06-04T19:30:00Z,30.2583,-88.2131,4.273,19.76,1111122 
DISL,ioos:station:DISL:KATA:1,2015-06-04T20:00:00Z,30.2583,-88.2131,4.248,19.27,1111122 
DISL,ioos:station:DISL:KATA:1,2015-06-04T20:30:00Z,30.2583,-88.2131,4.208,19.24,1111122 
DISL,ioos:station:DISL:KATA:1,2015-06-04T21:00:00Z,30.2583,-88.2131,4.152,19.16,1111122 
DISL,ioos:station:DISL:KATA:1,2015-06-04T21:30:00Z,30.2583,-88.2131,4.096,19.07,1111122 
DISL,ioos:station:DISL:KATA:1,2015-06-04T22:00:00Z,30.2583,-88.2131,4.033,18.92,1111122 
DISL,ioos:station:DISL:KATA:1,2015-06-04T22:30:00Z,30.2583,-88.2131,3.97,18.72,1111122 
DISL,ioos:station:DISL:KATA:1,2015-06-04T23:00:00Z,30.2583,-88.2131,3.917,18.57,1111122 
DISL,ioos:station:DISL:KATA:1,2015-06-04T23:30:00Z,30.2583,-88.2131,3.864,18.19,1111122 
DISL,ioos:station:DISL:KATA:1,2015-06-05T00:00:00Z,30.2583,-88.2131,3.821,18.3,1111122 
DISL,ioos:station:DISL:KATA:1,2015-06-05T00:30:00Z,30.2583,-88.2131,3.783,18.02,1111122 
DISL,ioos:station:DISL:KATA:1,2015-06-05T01:00:00Z,30.2583,-88.2131,3.757,17.93,1111122 
DISL,ioos:station:DISL:KATA:1,2015-06-05T01:30:00Z,30.2583,-88.2131,3.734,17.84,1111122 
DISL,ioos:station:DISL:KATA:1,2015-06-05T02:00:00Z,30.2583,-88.2131,3.729,18.27,1111122 
DISL,ioos:station:DISL:KATA:1,2015-06-05T02:30:00Z,30.2583,-88.2131,3.742,18.15,1111122 
DISL,ioos:station:DISL:KATA:1,2015-06-05T03:00:00Z,30.2583,-88.2131,3.739,18.18,1111122 
DISL,ioos:station:DISL:KATA:1,2015-06-05T03:30:00Z,30.2583,-88.2131,3.751,18.36,1111122 
DISL,ioos:station:DISL:KATA:1,2015-06-05T04:00:00Z,30.2583,-88.2131,3.759,18.32,1111122 
DISL,ioos:station:DISL:KATA:1,2015-06-05T04:30:00Z,30.2583,-88.2131,3.757,18.27,1111122 
DISL,ioos:station:DISL:KATA:1,2015-06-05T05:00:00Z,30.2583,-88.2131,3.771,18.39,1111122 
DISL,ioos:station:DISL:KATA:1,2015-06-05T05:30:00Z,30.2583,-88.2131,3.78,18.84,1111122 
DISL,ioos:station:DISL:KATA:1,2015-06-05T06:00:00Z,30.2583,-88.2131,3.804,18.78,1111122 
DISL,ioos:station:DISL:KATA:1,2015-06-05T06:30:00Z,30.2583,-88.2131,3.858,19.33,1111122 
DISL,ioos:station:DISL:KATA:1,2015-06-05T07:00:00Z,30.2583,-88.2131,3.912,18.93,1111122 
DISL,ioos:station:DISL:KATA:1,2015-06-05T07:30:00Z,30.2583,-88.2131,3.93,19.4,1111122 
DISL,ioos:station:DISL:KATA:1,2015-06-05T08:00:00Z,30.2583,-88.2131,3.962,18.93,1111122 
DISL,ioos:station:DISL:KATA:1,2015-06-05T08:30:00Z,30.2583,-88.2131,3.993,19.71,1111122 
DISL,ioos:station:DISL:KATA:1,2015-06-05T09:00:00Z,30.2583,-88.2131,4.014,19.28,1111122 
DISL,ioos:station:DISL:KATA:1,2015-06-05T09:30:00Z,30.2583,-88.2131,4.037,19.29,1111122 
DISL,ioos:station:DISL:KATA:1,2015-06-05T10:00:00Z,30.2583,-88.2131,4.065,19.6,1111122 
DISL,ioos:station:DISL:KATA:1,2015-06-05T10:30:00Z,30.2583,-88.2131,4.088,19.17,1111122 
DISL,ioos:station:DISL:KATA:1,2015-06-05T11:00:00Z,30.2583,-88.2131,4.11,19.28,1111122 
DISL,ioos:station:DISL:KATA:1,2015-06-05T11:30:00Z,30.2583,-88.2131,4.127,19.49,1111122 
DISL,ioos:station:DISL:KATA:1,2015-06-05T12:00:00Z,30.2583,-88.2131,4.139,19.35,1111122 
DISL,ioos:station:DISL:KATA:1,2015-06-05T12:30:00Z,30.2583,-88.2131,4.162,19.51,1111122 
DISL,ioos:station:DISL:KATA:1,2015-06-05T13:00:00Z,30.2583,-88.2131,4.187,19.29,1111122 
DISL,ioos:station:DISL:KATA:1,2015-06-05T13:30:00Z,30.2583,-88.2131,4.219,19.39,1111122 
DISL,ioos:station:DISL:KATA:1,2015-06-05T14:00:00Z,30.2583,-88.2131,4.241,20.07,1111122 
DISL,ioos:station:DISL:KATA:1,2015-06-05T14:30:00Z,30.2583,-88.2131,4.273,19.61,1111122 
DISL,ioos:station:DISL:KATA:1,2015-06-05T15:00:00Z,30.2583,-88.2131,4.303,19.8,1111122 
DISL,ioos:station:DISL:KATA:1,2015-06-05T15:30:00Z,30.2583,-88.2131,4.326,19.77,1111122 
DISL,ioos:station:DISL:KATA:1,2015-06-05T16:00:00Z,30.2583,-88.2131,4.34,19.53,1111122 
DISL,ioos:station:DISL:KATA:1,2015-06-05T16:30:00Z,30.2583,-88.2131,4.353,19.14,1111122 
DISL,ioos:station:DISL:KATA:1,2015-06-05T17:00:00Z,30.2583,-88.2131,4.35,20.09,1111122 
DISL,ioos:station:DISL:KATA:1,2015-06-05T17:30:00Z,30.2583,-88.2131,4.338,19.96,1111122 
DISL,ioos:station:DISL:KATA:1,2015-06-05T18:00:00Z,30.2583,-88.2131,4.318,20.2,1111122 
DISL,ioos:station:DISL:KATA:1,2015-06-05T18:30:00Z,30.2583,-88.2131,4.3,20.38,1111122 
DISL,ioos:station:DISL:KATA:1,2015-06-05T19:00:00Z,30.2583,-88.2131,4.28,20.04,1111122 
DISL,ioos:station:DISL:KATA:1,2015-06-05T19:30:00Z,30.2583,-88.2131,4.247,20.38,1111122 
DISL,ioos:station:DISL:KATA:1,2015-06-05T20:00:00Z,30.2583,-88.2131,4.227,20.35,1111122 
DISL,ioos:station:DISL:KATA:1,2015-06-05T20:30:00Z,30.2583,-88.2131,4.205,20.09,1111122 
DISL,ioos:station:DISL:KATA:1,2015-06-05T21:00:00Z,30.2583,-88.2131,4.175,20.05,1111122 
DISL,ioos:station:DISL:KATA:1,2015-06-05T21:30:00Z,30.2583,-88.2131,4.129,20.06,1111122 
DISL,ioos:station:DISL:KATA:1,2015-06-05T22:00:00Z,30.2583,-88.2131,4.081,19.98,1111122 
DISL,ioos:station:DISL:KATA:1,2015-06-05T22:30:00Z,30.2583,-88.2131,4.027,20.04,1111122 
DISL,ioos:station:DISL:KATA:1,2015-06-05T23:00:00Z,30.2583,-88.2131,3.979,19.91,1111122 
DISL,ioos:station:DISL:KATA:1,2015-06-05T23:30:00Z,30.2583,-88.2131,3.927,20.34,1111122 
DISL,ioos:station:DISL:KATA:1,2015-06-06T00:00:00Z,30.2583,-88.2131,3.876,20.75,1111122 
DISL,ioos:station:DISL:KATA:1,2015-06-06T00:30:00Z,30.2583,-88.2131,3.833,20.57,1111122 
DISL,ioos:station:DISL:KATA:1,2015-06-06T01:00:00Z,30.2583,-88.2131,3.801,20.06,1111122 
DISL,ioos:station:DISL:KATA:1,2015-06-06T01:30:00Z,30.2583,-88.2131,3.777,20.23,1111122 
DISL,ioos:station:DISL:KATA:1,2015-06-06T02:00:00Z,30.2583,-88.2131,3.757,19.94,1111122 
DISL,ioos:station:DISL:KATA:1,2015-06-06T02:30:00Z,30.2583,-88.2131,3.758,20.34,1111122 
DISL,ioos:station:DISL:KATA:1,2015-06-06T03:00:00Z,30.2583,-88.2131,3.753,20.26,1111122 
DISL,ioos:station:DISL:KATA:1,2015-06-06T03:30:00Z,30.2583,-88.2131,3.756,20.24,1111122 
DISL,ioos:station:DISL:KATA:1,2015-06-06T04:00:00Z,30.2583,-88.2131,3.763,20.31,1111122 
DISL,ioos:station:DISL:KATA:1,2015-06-06T04:30:00Z,30.2583,-88.2131,3.763,20.74,1111122 
DISL,ioos:station:DISL:KATA:1,2015-06-06T05:00:00Z,30.2583,-88.2131,3.764,20.26,1111122 
DISL,ioos:station:DISL:KATA:1,2015-06-06T05:30:00Z,30.2583,-88.2131,3.764,20.25,1111122 
DISL,ioos:station:DISL:KATA:1,2015-06-06T06:00:00Z,30.2583,-88.2131,3.774,20.93,1111122 
DISL,ioos:station:DISL:KATA:1,2015-06-06T06:30:00Z,30.2583,-88.2131,3.791,20.31,1111122 
DISL,ioos:station:DISL:KATA:1,2015-06-06T07:00:00Z,30.2583,-88.2131,3.811,20.79,1111122 
DISL,ioos:station:DISL:KATA:1,2015-06-06T07:30:00Z,30.2583,-88.2131,3.842,20.92,1111122 
DISL,ioos:station:DISL:KATA:1,2015-06-06T08:00:00Z,30.2583,-88.2131,3.881,20.37,1111122 
DISL,ioos:station:DISL:KATA:1,2015-06-06T08:30:00Z,30.2583,-88.2131,3.906,21.06,1111122 
DISL,ioos:station:DISL:KATA:1,2015-06-06T09:00:00Z,30.2583,-88.2131,3.935,20.51,1111122 
DISL,ioos:station:DISL:KATA:1,2015-06-06T09:30:00Z,30.2583,-88.2131,3.969,20.67,1111122 
DISL,ioos:station:DISL:KATA:1,2015-06-06T10:00:00Z,30.2583,-88.2131,3.987,20.57,1111122 
DISL,ioos:station:DISL:KATA:1,2015-06-06T10:30:00Z,30.2583,-88.2131,3.995,20.72,1111122 
DISL,ioos:station:DISL:KATA:1,2015-06-06T11:00:00Z,30.2583,-88.2131,4.013,20.67,1111122 
DISL,ioos:station:DISL:KATA:1,2015-06-06T11:30:00Z,30.2583,-88.2131,4.032,20.77,1111122 
DISL,ioos:station:DISL:KATA:1,2015-06-06T12:00:00Z,30.2583,-88.2131,4.059,20.62,1111122 
DISL,ioos:station:DISL:KATA:1,2015-06-06T12:30:00Z,30.2583,-88.2131,4.093,21.14,1111122 
DISL,ioos:station:DISL:KATA:1,2015-06-06T13:00:00Z,30.2583,-88.2131,4.117,21.19,1111122 
DISL,ioos:station:DISL:KATA:1,2015-06-06T13:30:00Z,30.2583,-88.2131,4.14,21.39,1111122 
DISL,ioos:station:DISL:KATA:1,2015-06-06T14:00:00Z,30.2583,-88.2131,4.154,21.44,1111122 